Location: Newark
(51.3318°N, 0.0053°E)
Time: 07:58:17
(UTC+00:00)

CAS-6 - Pass Details

Date: 10 July 2022
Orbit: 613 x 634 km, 97.9° (Epoch: 17 August)

Event Time Altitude Azimuth Distance (km) Brightness Sun altitude
Exits shadow 21:12:21 - 128° (SE) 2,098 ? -7.3°
Reaches altitude 10° 21:12:39 10° 126° (SE) 1,990 ? -7.3°
Maximum altitude 21:16:27 31° 65° (ENE) 1,097 ? -7.7°
Drops below altitude 10° 21:20:15 10° 3° (N) 1,993 ? -8.1°
Sets 21:22:37 0° 354° (N) 2,901 ? -8.3°
